sat.trackr.live / text

‹ back to catalog

STARLINK-36038

NORAD 66804 · 2025-278P

PAYLOAD ACTIVE UNKNOWN

§ Identity

Operator
Country
US
Launch date
2025-12-01
Launch site
AFETR
Launch vehicle
Mass (kg)
RCS (m²)

Purposes: comms

External: N2YO · Heavens-Above · Gunter

§ Orbital elements

Epoch: 2026-09-20T21:13:06.052512Z

Period
94.27 min
Inclination
43.0002°
Eccentricity
0.0001154
Mean motion
15.27586891 rev/d
Perigee alt
482.2 km
Apogee alt
483.8 km
Semi-major
6,861.2 km
B*
5.1205e-4
RAAN
91.8353°
Arg perigee
278.8681°
Mean anomaly
81.2040°
Rev number
4,506

§ Raw data

STARLINK-360381 66804U 25278P   26263.88409783  .00013858  00000+0  51205-3 0  99942 66804  43.0002  91.8353 0001154 278.8681  81.2040 15.27586891 45067

JSON: /api/v1/satellites/66804 · /tle

For live sub-satellite position, see the globe view (requires WebGL).

§ Visibility from observer

Set your observer location to see the next 7 days of passes ≥ 10°. The values pass through the URL so the page stays shareable.

No JS? Fill the form by hand. The geolocation button needs JavaScript.